Location: Fort Frances
(48.6170°N, 93.4170°W)
Time: 00:46:25
(UTC-05:00)

ISS - All Passes

Search period start: 01 August 2015 00:00
Search period end: 11 August 2015 00:00
Orbit: 401 x 403 km, 51.6° (Epoch: 31 July)

Date Brightness Start Highest point End Pass type
(mag) Time Alt. Az. Time Alt. Az. Time Alt. Az.
01 Aug - 01:13:48 10° WNW 01:16:59 47° N 01:20:10 10° ENE visible
01 Aug - 02:50:20 10° WNW 02:53:37 87° NNE 02:56:54 10° ESE visible
01 Aug - 04:27:12 10° W 04:29:45 21° SW 04:32:17 10° SSE visible
01 Aug - 21:09:19 10° S 21:11:17 15° SE 21:13:20 10° E daylight
01 Aug - 22:44:04 10° WSW 22:47:18 74° SSE 22:50:35 10° ENE visible
02 Aug - 00:20:42 10° W 00:23:53 48° N 00:27:04 10° ENE visible
02 Aug - 01:57:20 10° WNW 02:00:36 64° NNE 02:03:50 10° E visible
02 Aug - 03:33:54 10° W 03:36:55 34° SW 03:39:54 10° SSE night (unlit)
02 Aug - 21:51:13 10° SW 21:54:21 47° SSE 21:57:31 10° ENE visible
02 Aug - 23:27:34 10° W 23:30:47 55° N 23:34:01 10° ENE visible
03 Aug - 01:04:18 10° WNW 01:07:31 52° N 01:10:43 10° E visible
03 Aug - 02:40:47 10° WNW 02:43:59 55° SSW 02:47:12 10° SE night (unlit)
03 Aug - 04:18:56 10° WSW 04:19:53 11° SW 04:20:44 10° SSW night (unlit)
03 Aug - 20:58:36 10° SSW 21:01:27 29° SE 21:04:20 10° E daylight
03 Aug - 22:34:27 10° WSW 22:37:43 71° NNW 22:40:59 10° ENE visible
04 Aug - 00:11:13 10° WNW 00:14:24 47° N 00:17:35 10° E visible
04 Aug - 01:47:44 10° WNW 01:51:01 85° SSW 01:54:17 10° ESE visible
04 Aug - 03:24:43 10° W 03:27:05 18° SW 03:29:25 10° S night (unlit)
04 Aug - 20:06:21 10° S 20:08:36 18° SE 20:10:54 10° E daylight
04 Aug - 21:41:24 10° WSW 21:44:40 82° SSE 21:47:57 10° ENE visible
04 Aug - 23:18:05 10° W 23:21:16 47° N 23:24:27 10° ENE visible
05 Aug - 00:54:41 10° WNW 00:57:58 69° NNE 01:01:13 10° ESE visible
05 Aug - 02:31:19 10° W 02:34:14 30° SW 02:37:08 10° SSE night (unlit)
05 Aug - 19:15:19 10° SE 19:15:48 10° SE 19:16:24 10° SE daylight
05 Aug - 20:48:29 10° SW 20:51:40 53° SSE 20:54:52 10° ENE daylight
05 Aug - 22:24:56 10° W 22:28:08 53° N 22:31:21 10° ENE visible
06 Aug - 00:01:38 10° WNW 00:04:52 55° NNE 00:08:05 10° E visible
06 Aug - 01:38:07 10° WNW 01:41:18 49° SSW 01:44:28 10° SE visible
06 Aug - 19:55:46 10° SSW 19:58:43 33° SE 20:01:42 10° E daylight
06 Aug - 21:31:47 10° W 21:35:02 66° NNW 21:38:17 10° ENE visible
06 Aug - 23:08:32 10° WNW 23:11:43 48° N 23:14:55 10° E visible
07 Aug - 00:45:02 10° WNW 00:48:18 77° SSW 00:51:34 10° ESE visible
07 Aug - 02:22:12 10° W 02:24:20 16° SW 02:26:24 10° S night (unlit)
07 Aug - 19:03:22 10° S 19:05:50 20° SE 19:08:20 10° E daylight
07 Aug - 20:38:40 10° WSW 20:41:56 90° NW 20:45:13 10° ENE daylight
07 Aug - 22:15:24 10° WNW 22:18:34 47° N 22:21:45 10° ENE visible
07 Aug - 23:51:58 10° WNW 23:55:15 75° NNE 23:58:30 10° ESE visible
08 Aug - 01:28:39 10° W 01:31:28 26° SW 01:34:15 10° SSE visible
08 Aug - 18:11:41 10° SSE 18:12:59 12° SE 18:14:22 10° ESE daylight
08 Aug - 19:45:41 10° SW 19:48:54 60° SSE 19:52:08 10° ENE daylight
08 Aug - 21:22:12 10° W 21:25:24 51° N 21:28:37 10° ENE visible
08 Aug - 22:58:53 10° WNW 23:02:07 57° NNE 23:05:21 10° E visible
09 Aug - 00:35:24 10° WNW 00:38:31 43° SSW 00:41:37 10° SE visible
09 Aug - 18:52:52 10° SW 18:55:54 37° SSE 18:58:58 10° ENE daylight
09 Aug - 20:29:01 10° W 20:32:15 61° NNW 20:35:30 10° ENE daylight
09 Aug - 22:05:46 10° WNW 22:08:58 49° N 22:12:09 10° E visible
09 Aug - 23:42:15 10° WNW 23:45:31 69° SSW 23:48:45 10° ESE visible
10 Aug - 01:19:38 10° WSW 01:21:29 14° SW 01:23:15 10° S night (unlit)
10 Aug - 18:00:20 10° SSW 18:02:58 23° SE 18:05:38 10° E daylight
10 Aug - 19:35:52 10° WSW 19:39:08 82° NNW 19:42:25 10° ENE daylight
10 Aug - 21:12:37 10° WNW 21:15:47 47° N 21:18:57 10° ENE visible
10 Aug - 22:49:09 10° WNW 22:52:26 82° NNE 22:55:42 10° ESE visible
